Погода в Кирееве

Россия / Волгоградская область     50°00′37″N   44°28′56″E
темп.,
°C
ветер,
м/с
пор.,
м/с
влажн.,
%
обл.,
%
осадки,
мм/ч
давл.,
гПа
погр.,
м
11 мая, вт
вт1100:00+7юв5892100 0.3 1013550
03:00+6вюв51086100 0.4 1015665
06:00+6вюв61189100 0.0 1017604
09:00+9юв9127598 0.1 10191251
12:00+10юв81276100 0.3 10211540
15:00+12юв7106595 0.4 10231592
18:00+12вюв486899 0.1 1023420
21:00+8в477775 0.1 102497
12 мая, ср
ср1200:00+8св487387 0.0 1023116
03:00+7св51278100 0.0 1022209
06:00+9св4108255 0.0 1021242
09:00+14всв456696 0.0 1020579
12:00+18вюв33555 0.0 10191332
15:00+19вюв56546 0.0 10191539
18:00+18всв366813 0.0 1019420
21:00+15всв488277 0.0 1018158
13 мая, чт
чт1300:00+15св4983100 0.1 1017250
03:00+14в41183100 0.1 1016303
06:00+14вюв598612 0.0 1016359
09:00+20юв57590 0.0 1016728
12:00+23ююв55513 0.0 10161227
15:00+24ююв45470 0.0 10161488
18:00+23ююв24584 0.0 1016123
21:00+18вюв11656 0.0 101711
14 мая, пт
пт1400:00+17всв3370100 0.0 101719
03:00+16всв338331 0.0 101836
06:00+17в497930 0.0 1018221
09:00+23юв710547 0.0 1017629
12:00+26ююв7941100 0.0 1017970
15:00+28юв7104014 0.0 10171498
18:00+25юв613450 0.0 1016345
21:00+21юв615471 0.0 1016273
15 мая, сб
сб1500:00+20ююв618375 0.0 1017395
03:00+16юв412461 0.0 1017189
06:00+16вюв413532 0.0 1017262
09:00+23юв711385 0.0 1017470
12:00+27ююв71130100 0.0 10161049
15:00+29ююв7112818 0.0 10152407
18:00+25юв5114178 0.0 1014248
21:00+20юв5125145 0.0 1014172